Regional Weather Roundup
Issued by NWS Nashville, TN

Home | Current Version | Previous Version | Text Only | Print | Product List | Glossary On
Versions: 1 2 3 4 5 6 7 8 9 10 11 12 13 14 15 16 17 18 19 20 21 22 23 24 25 26 27
000
ASUS44 KOHX 221510
RWROHX
MIDDLE TENNESSEE HOURLY WEATHER ROUNDUP
NATIONAL WEATHER SERVICE NASHVILLE TN
1000 AM CDT TUE AUG 22 2017

NOTE: "FAIR" INDICATES FEW OR NO CLOUDS BELOW 12,000 FEET WITH
NO SIGNIFICANT WEATHER AND/OR OBSTRUCTIONS TO VISIBILITY.

* THESE REPORTS ARE NOT UNDER NWS QUALITY CONTROL AND MAY NOT
  REPORT WEATHER SUCH AS PRECIPITATION AND FOG.


TNZ005>011-023>034-057-059-062>066-078-080-221600
...NORTHERN MIDDLE TENNESSEE...

CITY           SKY/WX    TMP DP  RH WIND       PRES   REMARKS
CLARKSVILLE    SUNNY     86  74  67 SW8       30.04S HX  94
CROSSVILLE     SUNNY     80  70  71 VRB7      30.18R
GALLATIN       SUNNY     86  75  70 S8        30.09S HX  95
DICKSON        SUNNY     84  73  69 W12       30.07R HX  90
LEBANON        SUNNY     85  73  67 SW9       30.06S HX  91
NASHVILLE      MOSUNNY   87  73  62 SW9       30.07F HX  94
PORTLAND       SUNNY     84  75  74 SW9       30.05F HX  92
SMYRNA         MOSUNNY   87  75  67 SW8       30.08F HX  96
SPARTA         MOSUNNY   84  73  70 SW7       30.11S HX  91
SPRINGFIELD    SUNNY     84  75  74 SW10G18   30.04S HX  92
WEST NASHVILLE SUNNY     86  75  70 SW8       30.04S HX  95
$$
TNZ056-058-060-061-075>077-079-093>097-221600
...SOUTHERN MIDDLE TENNESSEE...

CITY           SKY/WX    TMP DP  RH WIND       PRES   REMARKS
COLUMBIA       SUNNY     86  75  70 SW9       30.07S HX  95
FAYETTEVILLE   SUNNY     84  73  70 SW7       30.12S HX  91
MCMINNVILLE    MOSUNNY   86  77  74 VRB5      30.12S HX  97
MURFREESBORO   SUNNY     86  72  62 W8        30.07F HX  92
PULASKI        SUNNY     86  75  70 CALM      30.09S HX  95
SHELBYVILLE    SUNNY     84  75  74 SW7       30.10S HX  92
TULLAHOMA      SUNNY     84  72  65 W10       30.14R
WINCHESTER     SUNNY     84  73  70 SW7       30.13R HX  91
$$


...KEY TO REMARKS...
VSB - VISIBILITY IN MILES
WCI - WIND CHILL INDEX
HX  - HEAT INDEX





USA.gov is the U.S. government's official web portal to all federal, state and local government web resources and services.